#ZEITBEREICH: 19.05.2023 bis 19.05.2024
Datum;Zeit;NIED F AM1H [%];NIED NO AM1H [�g/m�];NIED NO2 AM1H [�g/m�];NIED O3 AM1H [�g/m�];NIED PM10F GM24H [�g/m�];NIED T AM1H [�C];NIED WG SM1H [m/s];NIED WR VM1H [�]
19.05.2023;01:00;75,8;<7;11;49;12;8,5;1,0;52
19.05.2023;02:00;84,1;<7;12;34;12;7,1;0,9;37
19.05.2023;03:00;86,2;<7;10;33;12;6,6;0,7;
19.05.2023;04:00;91,7;<7;16;21;12;5,5;0,6;
19.05.2023;05:00;93,0;10;28;9;12;5,2;0,3;
19.05.2023;06:00;89,2;15;31;;12;6,0;0,7;66
19.05.2023;07:00;74,4;<7;18;29;13;9,1;0,8;57
19.05.2023;08:00;64,3;<7;13;44;13;11,8;2,1;59
19.05.2023;09:00;55,4;<7;<10;55;13;14,4;2,7;63
19.05.2023;10:00;48,4;<7;<10;72;13;16,2;3,9;61
19.05.2023;11:00;41,0;<7;<10;85;13;17,5;4,4;62
19.05.2023;12:00;39,2;<7;<10;90;13;18,3;4,0;73
19.05.2023;13:00;38,5;<7;<10;94;13;19,1;4,0;53
19.05.2023;14:00;35,5;<7;<10;99;13;19,7;4,1;72
19.05.2023;15:00;34,5;<7;<10;104;13;20,2;4,0;67
19.05.2023;16:00;34,3;<7;<10;105;13;20,2;3,6;72
19.05.2023;17:00;34,2;<7;<10;106;13;20,3;3,8;64
19.05.2023;18:00;36,3;<7;<10;106;13;19,3;4,5;62
19.05.2023;19:00;38,9;<7;<10;101;13;18,6;4,3;54
19.05.2023;20:00;41,2;<7;<10;95;12;17,8;3,8;58
19.05.2023;21:00;49,1;;;83;12;16,2;2,4;61
19.05.2023;22:00;54,8;<7;<10;73;12;14,6;2,2;36
19.05.2023;23:00;58,6;<7;<10;66;12;14,2;1,6;33
19.05.2023;24:00;64,0;<7;<10;62;12;13,2;1,4;45
20.05.2023;01:00;72,0;<7;<10;51;12;11,6;1,3;45
20.05.2023;02:00;74,8;<7;13;44;11;11,0;1,5;61
20.05.2023;03:00;78,5;<7;16;36;12;10,1;1,2;63
20.05.2023;04:00;84,7;<7;16;27;12;9,0;1,2;40
20.05.2023;05:00;83,5;<7;21;27;12;9,0;0,7;59
20.05.2023;06:00;79,0;<7;15;35;11;10,4;2,1;42
20.05.2023;07:00;66,6;<7;10;;11;13,4;3,4;45
20.05.2023;08:00;65,7;<7;<10;58;11;14,0;3,6;51
20.05.2023;09:00;68,0;<7;<10;58;11;13,8;3,9;51
20.05.2023;10:00;67,7;<7;<10;56;11;14,2;4,3;45
20.05.2023;11:00;66,9;<7;<10;56;11;15,0;4,0;47
20.05.2023;12:00;61,7;<7;<10;68;11;17,2;3,9;57
20.05.2023;13:00;57,9;<7;<10;81;11;18,2;5,0;49
20.05.2023;14:00;55,7;<7;<10;85;11;18,8;4,7;58
20.05.2023;15:00;55,5;<7;<10;87;11;18,7;4,5;56
20.05.2023;16:00;57,0;<7;<10;85;10;18,4;4,7;48
20.05.2023;17:00;59,0;<7;<10;84;11;17,7;3,9;53
20.05.2023;18:00;61,0;<7;<10;80;11;17,3;3,9;63
20.05.2023;19:00;63,4;<7;<10;77;11;16,9;3,8;59
20.05.2023;20:00;67,0;<7;<10;74;11;16,2;3,5;54
20.05.2023;21:00;69,1;<7;<10;69;11;15,9;3,3;54
20.05.2023;22:00;71,5;;;65;11;15,5;2,8;54
20.05.2023;23:00;74,6;<7;<10;61;11;14,9;2,6;50
20.05.2023;24:00;79,4;<7;<10;55;11;13,9;1,9;34
21.05.2023;01:00;82,8;<7;<10;52;11;13,1;2,1;35
21.05.2023;02:00;83,5;<7;<10;53;12;12,8;2,1;36
21.05.2023;03:00;86,9;<7;<10;49;12;12,1;1,6;35
21.05.2023;04:00;88,3;<7;<10;46;12;11,9;1,6;33
21.05.2023;05:00;91,2;<7;<10;39;11;11,4;1,2;24
21.05.2023;06:00;91,2;<7;<10;35;11;11,6;1,7;31
21.05.2023;07:00;88,1;<7;<10;41;11;12,7;2,3;34
21.05.2023;08:00;84,8;<7;<10;42;11;13,7;2,1;46
21.05.2023;09:00;79,9;<7;<10;43;12;15,2;2,4;47
21.05.2023;10:00;74,4;<7;<10;46;12;17,0;2,7;38
21.05.2023;11:00;68,8;<7;<10;59;12;18,7;3,1;36
21.05.2023;12:00;66,5;<7;<10;66;12;19,9;3,0;38
21.05.2023;13:00;63,7;<7;<10;74;13;21,1;2,8;54
21.05.2023;14:00;62,2;<7;<10;82;13;21,8;3,2;55
21.05.2023;15:00;57,5;<7;<10;91;13;23,4;3,0;40
21.05.2023;16:00;53,7;<7;<10;100;14;24,8;3,6;62
21.05.2023;17:00;58,3;<7;<10;96;14;24,1;3,3;32
21.05.2023;18:00;59,9;<7;<10;95;15;24,2;3,6;19
21.05.2023;19:00;58,0;<7;<10;96;15;24,2;3,4;36
21.05.2023;20:00;63,6;<7;<10;93;16;23,2;2,2;13
21.05.2023;21:00;64,6;<7;<10;94;16;21,6;3,0;92
21.05.2023;22:00;76,5;<7;<10;96;16;19,0;2,6;98
21.05.2023;23:00;91,9;;;;16;17,2;3,0;159
21.05.2023;24:00;96,3;<7;<10;74;16;17,0;1,7;62
22.05.2023;01:00;98,5;<7;11;51;16;16,5;0,9;81
22.05.2023;02:00;99,7;<7;18;29;16;15,8;0,4;
22.05.2023;03:00;100,0;<7;15;16;16;15,2;0,1;
22.05.2023;04:00;100,0;<7;25;4;16;14,9;0,3;
22.05.2023;05:00;100,0;<7;27;<4;16;14,7;0,2;
22.05.2023;06:00;100,0;24;27;<4;16;14,4;0,7;134
22.05.2023;07:00;100,0;18;29;6;16;15,2;0,5;
22.05.2023;08:00;97,5;10;25;14;16;16,6;0,4;
22.05.2023;09:00;90,5;8;26;27;16;18,6;0,7;
22.05.2023;10:00;79,5;<7;25;48;17;21,1;1,5;256
22.05.2023;11:00;72,1;<7;18;62;17;23,0;2,1;288
22.05.2023;12:00;63,8;<7;<10;89;17;24,9;2,4;306
22.05.2023;13:00;57,1;<7;<10;105;17;26,0;2,3;314
22.05.2023;14:00;53,7;<7;<10;112;17;26,5;2,4;313
22.05.2023;15:00;53,9;<7;<10;114;17;26,2;2,0;339
22.05.2023;16:00;59,5;<7;<10;109;17;25,2;2,1;324
22.05.2023;17:00;73,3;<7;<10;96;17;22,6;2,5;107
22.05.2023;18:00;82,7;<7;12;83;17;19,6;1,9;138
22.05.2023;19:00;91,9;<7;<10;78;17;18,3;2,2;8
22.05.2023;20:00;95,0;<7;10;67;17;18,2;0,7;
22.05.2023;21:00;96,0;<7;23;43;17;18,4;1,3;249
22.05.2023;22:00;92,9;<7;<10;60;17;17,5;1,6;308
22.05.2023;23:00;92,6;<7;<10;62;17;15,7;1,6;303
22.05.2023;24:00;90,3;;;;16;15,1;2,0;300
23.05.2023;01:00;90,7;<7;<10;74;16;14,9;1,9;283
23.05.2023;02:00;88,0;<7;<10;85;16;15,0;2,8;286
23.05.2023;03:00;86,6;<7;<10;90;16;14,6;2,9;300
23.05.2023;04:00;90,1;<7;<10;81;16;14,4;1,6;264
23.05.2023;05:00;90,1;<7;<10;79;16;14,5;2,7;293
23.05.2023;06:00;92,6;<7;<10;78;16;14,0;2,9;296
23.05.2023;07:00;90,5;<7;<10;73;16;14,2;2,3;298
23.05.2023;08:00;92,2;<7;<10;75;16;13,7;3,5;307
23.05.2023;09:00;92,8;<7;<10;80;15;13,3;3,8;321
23.05.2023;10:00;89,4;<7;<10;74;14;13,4;3,5;318
23.05.2023;11:00;87,4;<7;<10;63;14;13,1;4,1;320
23.05.2023;12:00;84,8;<7;<10;64;13;12,8;3,8;324
23.05.2023;13:00;69,9;<7;<10;72;13;14,7;3,9;334
23.05.2023;14:00;65,5;<7;<10;70;13;15,3;3,4;333
23.05.2023;15:00;57,6;<7;<10;80;13;16,3;3,0;340
23.05.2023;16:00;51,2;<7;<10;84;12;16,9;4,1;350
23.05.2023;17:00;50,5;<7;<10;84;12;16,5;4,4;353
23.05.2023;18:00;54,0;<7;<10;81;11;15,4;3,7;350
23.05.2023;19:00;54,3;<7;<10;80;11;14,5;3,7;350
23.05.2023;20:00;56,5;<7;<10;80;11;13,6;3,1;350
23.05.2023;21:00;63,4;<7;<10;76;11;12,1;2,4;349
23.05.2023;22:00;67,6;<7;<10;73;11;10,6;;
23.05.2023;23:00;73,1;<7;<10;66;11;9,3;1,6;337
23.05.2023;24:00;76,0;<7;<10;63;11;8,2;1,3;329
24.05.2023;01:00;82,7;;;;11;7,1;1,2;320
24.05.2023;02:00;86,5;<7;<10;41;11;6,6;0,8;253
24.05.2023;03:00;91,3;<7;31;13;11;5,7;0,9;227
24.05.2023;04:00;93,7;<7;31;8;11;5,2;0,8;254
24.05.2023;05:00;95,5;<7;24;13;11;5,0;0,8;258
24.05.2023;06:00;93,1;<7;21;19;11;5,7;1,3;234
24.05.2023;07:00;86,8;15;36;18;11;8,1;1,3;239
24.05.2023;08:00;80,9;<7;15;44;12;10,0;1,9;300
24.05.2023;09:00;75,9;<7;<10;60;12;11,4;2,5;312
24.05.2023;10:00;72,5;<7;<10;64;13;11,7;2,1;324
24.05.2023;11:00;67,0;<7;<10;69;13;12,5;2,0;342
24.05.2023;12:00;64,2;<7;<10;74;14;12,8;1,8;354
24.05.2023;13:00;66,2;<7;<10;70;14;12,6;1,4;1
24.05.2023;14:00;64,4;<7;<10;73;14;13,0;1,3;7
24.05.2023;15:00;66,9;<7;<10;72;15;13,2;1,3;38
24.05.2023;16:00;63,8;<7;<10;72;15;14,1;1,0;20
24.05.2023;17:00;62,4;<7;<10;74;15;14,6;1,2;17
24.05.2023;18:00;65,0;<7;<10;69;16;14,3;1,7;73
24.05.2023;19:00;68,1;<7;13;57;16;13,9;1,2;125
24.05.2023;20:00;71,9;<7;19;47;16;13,4;0,6;146
24.05.2023;21:00;79,8;<7;36;24;16;12,1;0,5;
24.05.2023;22:00;87,4;<7;42;11;16;10,6;0,5;
24.05.2023;23:00;93,5;<7;37;<4;16;9,3;0,3;
24.05.2023;24:00;96,2;<7;28;<4;17;8,4;0,2;
25.05.2023;01:00;97,4;<7;24;<4;17;8,1;0,4;
25.05.2023;02:00;97,3;;;;17;8,3;0,6;
25.05.2023;03:00;98,1;12;22;<4;17;7,6;0,6;
25.05.2023;04:00;98,7;15;18;<4;17;6,8;0,5;
25.05.2023;05:00;99,2;29;17;<4;17;6,5;0,5;
25.05.2023;06:00;98,3;40;16;<4;17;7,0;0,4;
25.05.2023;07:00;90,0;9;16;19;17;9,8;1,3;7
25.05.2023;08:00;77,3;<7;<10;58;16;12,1;3,0;24
25.05.2023;09:00;74,3;<7;<10;67;16;12,7;2,8;19
25.05.2023;10:00;75,1;<7;<10;68;16;12,4;2,5;15
25.05.2023;11:00;72,6;<7;<10;73;15;12,7;2,7;29
25.05.2023;12:00;69,6;<7;<10;74;15;13,7;2,4;16
25.05.2023;13:00;67,1;<7;<10;73;15;14,8;3,1;22
25.05.2023;14:00;65,7;<7;<10;74;15;15,1;3,7;19
25.05.2023;15:00;60,1;<7;<10;79;15;16,1;3,5;43
25.05.2023;16:00;57,6;<7;<10;83;14;16,6;3,1;43
25.05.2023;17:00;55,7;<7;<10;85;14;17,3;2,8;44
25.05.2023;18:00;59,1;<7;<10;81;14;16,6;2,2;66
25.05.2023;19:00;57,5;<7;<10;85;13;16,7;2,3;58
25.05.2023;20:00;63,7;<7;<10;73;13;15,7;1,0;89
25.05.2023;21:00;75,9;<7;18;52;13;13,7;0,4;
25.05.2023;22:00;83,6;<7;20;35;13;12,3;1,5;18
25.05.2023;23:00;75,0;<7;<10;66;13;12,4;3,3;30
25.05.2023;24:00;77,4;<7;<10;72;14;11,2;3,0;31
26.05.2023;01:00;80,3;<7;<10;67;14;10,1;2,7;42
26.05.2023;02:00;83,8;<7;<10;63;14;9,0;2,3;40
26.05.2023;03:00;90,8;;;;14;7,7;1,1;20
26.05.2023;04:00;95,7;<7;<10;36;14;6,6;1,3;5
26.05.2023;05:00;94,7;<7;<10;45;14;6,7;1,8;14
26.05.2023;06:00;92,4;<7;<10;47;15;7,3;2,2;16
26.05.2023;07:00;84,1;<7;<10;52;15;9,2;3,0;27
26.05.2023;08:00;75,7;<7;<10;61;16;10,6;3,9;34
26.05.2023;09:00;70,3;<7;<10;60;16;12,0;3,1;51
26.05.2023;10:00;63,7;<7;<10;66;16;13,7;3,5;30
26.05.2023;11:00;59,8;<7;<10;72;17;14,8;3,4;41
26.05.2023;12:00;58,8;<7;<10;77;17;15,7;3,1;23
26.05.2023;13:00;55,0;<7;<10;81;18;17,0;3,6;21
26.05.2023;14:00;47,4;<7;<10;85;18;17,8;3,9;34
26.05.2023;15:00;39,8;<7;<10;90;18;18,7;4,2;37
26.05.2023;16:00;39,0;<7;<10;93;19;19,0;4,4;37
26.05.2023;17:00;41,5;<7;<10;92;19;19,0;4,4;34
26.05.2023;18:00;44,7;<7;<10;95;20;18,2;4,1;31
26.05.2023;19:00;47,6;<7;<10;99;20;17,3;4,2;38
26.05.2023;20:00;51,3;<7;<10;93;20;16,1;4,6;38
26.05.2023;21:00;56,7;<7;<10;87;20;14,3;3,4;34
26.05.2023;22:00;64,4;<7;<10;77;20;12,6;2,4;35
26.05.2023;23:00;70,7;<7;<10;70;20;11,4;1,9;46
26.05.2023;24:00;75,1;<7;<10;64;20;10,3;2,3;41
27.05.2023;01:00;79,7;<7;<10;64;20;9,4;2,5;38
27.05.2023;02:00;84,4;<7;<10;58;20;8,4;2,1;36
27.05.2023;03:00;87,7;<7;<10;53;19;7,7;1,8;33
27.05.2023;04:00;89,7;;;;20;7,2;2,0;36
27.05.2023;05:00;92,6;<7;<10;43;19;6,7;1,0;57
27.05.2023;06:00;91,1;<7;<10;38;19;7,3;1,3;57
27.05.2023;07:00;81,8;<7;<10;44;19;9,7;1,9;60
27.05.2023;08:00;73,7;<7;<10;50;19;12,0;2,5;61
27.05.2023;09:00;66,2;<7;<10;60;18;14,2;2,9;67
27.05.2023;10:00;59,9;<7;<10;66;18;16,1;2,5;66
27.05.2023;11:00;53,6;<7;<10;76;18;17,9;3,2;58
27.05.2023;12:00;48,5;<7;<10;89;18;19,0;3,9;57
27.05.2023;13:00;46,3;<7;<10;93;17;20,0;3,9;65
27.05.2023;14:00;42,4;<7;<10;97;17;20,9;3,6;76
27.05.2023;15:00;37,8;<7;<10;101;17;22,0;3,6;65
27.05.2023;16:00;34,3;<7;<10;103;16;22,6;3,6;73
27.05.2023;17:00;31,9;<7;<10;101;16;23,1;3,5;71
27.05.2023;18:00;34,6;<7;<10;101;16;22,1;3,2;77
27.05.2023;19:00;37,1;<7;<10;101;15;21,2;3,2;74
27.05.2023;20:00;43,4;<7;<10;95;15;20,2;1,7;52
27.05.2023;21:00;54,7;<7;<10;83;15;18,2;1,9;31
27.05.2023;22:00;63,4;<7;<10;71;15;16,0;1,2;38
27.05.2023;23:00;72,1;<7;14;51;15;14,2;1,2;53
27.05.2023;24:00;78,6;<7;21;38;14;12,9;1,3;35
28.05.2023;01:00;86,4;<7;39;16;15;11,4;0,6;
28.05.2023;02:00;90,0;10;44;4;15;10,5;0,4;
28.05.2023;03:00;93,9;13;45;<4;15;9,5;0,1;
28.05.2023;04:00;95,6;15;38;<4;15;8,9;0,2;
28.05.2023;05:00;96,2;;;;15;8,2;0,1;
28.05.2023;06:00;93,8;18;25;<4;15;8,9;0,0;
28.05.2023;07:00;80,2;7;16;20;15;12,2;0,9;47
28.05.2023;08:00;67,6;<7;11;44;15;15,1;1,5;54
28.05.2023;09:00;57,9;<7;<10;59;15;17,8;2,0;35
28.05.2023;10:00;50,5;<7;<10;71;15;20,1;2,3;45
28.05.2023;11:00;43,4;<7;<10;88;14;21,9;3,1;49
28.05.2023;12:00;39,3;<7;<10;97;14;22,4;3,7;38
28.05.2023;13:00;37,5;<7;<10;101;13;23,1;3,0;50
28.05.2023;14:00;37,7;<7;<10;104;13;23,7;4,0;39
28.05.2023;15:00;36,2;<7;<10;107;13;24,2;4,0;23
28.05.2023;16:00;38,2;<7;<10;107;13;24,0;3,9;25
28.05.2023;17:00;37,6;<7;<10;109;13;24,3;4,1;27
28.05.2023;18:00;41,0;<7;<10;111;14;23,1;4,0;24
28.05.2023;19:00;43,3;<7;<10;108;14;22,1;3,9;30
28.05.2023;20:00;46,0;<7;<10;107;14;21,3;3,9;27
28.05.2023;21:00;49,4;<7;<10;102;13;19,7;4,7;21
28.05.2023;22:00;58,0;<7;<10;87;13;17,7;5,6;21
28.05.2023;23:00;61,4;<7;<10;76;13;15,8;3,5;32
28.05.2023;24:00;63,1;<7;<10;72;13;14,3;3,0;38
29.05.2023;01:00;69,6;<7;<10;65;12;13,0;2,3;29
29.05.2023;02:00;76,7;<7;<10;59;12;11,8;2,9;7
29.05.2023;03:00;79,7;<7;<10;65;12;10,9;3,7;15
29.05.2023;04:00;83,2;<7;<10;65;12;9,9;2,3;20
29.05.2023;05:00;86,5;<7;<10;60;11;9,3;2,0;18
29.05.2023;06:00;85,0;;;;11;9,7;2,1;25
29.05.2023;07:00;75,5;<7;<10;58;11;11,5;3,1;37
29.05.2023;08:00;68,5;<7;<10;58;11;13,2;3,5;39
29.05.2023;09:00;64,5;<7;<10;61;11;14,4;4,5;29
29.05.2023;10:00;60,4;<7;<10;65;11;15,4;4,7;26
29.05.2023;11:00;56,0;<7;<10;70;11;16,7;4,7;33
29.05.2023;12:00;53,1;<7;<10;74;11;18,1;3,9;35
29.05.2023;13:00;51,2;<7;<10;77;11;18,8;4,2;16
29.05.2023;14:00;49,4;<7;<10;83;11;19,4;4,2;18
29.05.2023;15:00;46,9;<7;<10;87;11;20,0;4,3;20
29.05.2023;16:00;45,6;<7;<10;90;11;20,1;4,6;27
29.05.2023;17:00;42,0;<7;<10;95;11;20,5;4,3;22
29.05.2023;18:00;39,7;<7;<10;101;10;19,6;4,3;16
29.05.2023;19:00;37,5;<7;<10;101;10;18,7;4,1;16
29.05.2023;20:00;38,2;<7;<10;98;10;17,8;3,9;19
29.05.2023;21:00;42,9;<7;<10;93;11;16,3;4,0;25
29.05.2023;22:00;46,7;<7;<10;86;10;14,5;3,4;38
29.05.2023;23:00;44,9;<7;<10;81;10;13,1;3,4;33
29.05.2023;24:00;50,3;<7;<10;76;10;11,7;2,8;36
30.05.2023;01:00;58,7;<7;<10;70;10;10,4;1,9;53
30.05.2023;02:00;67,8;<7;<10;62;11;9,4;1,4;46
30.05.2023;03:00;75,1;<7;<10;59;11;8,7;1,9;35
30.05.2023;04:00;81,3;<7;<10;57;11;8,6;1,8;41
30.05.2023;05:00;81,0;<7;<10;64;12;9,5;2,5;36
30.05.2023;06:00;79,8;<7;<10;67;12;9,8;2,9;37
30.05.2023;07:00;76,6;;;;12;10,5;3,4;42
30.05.2023;08:00;71,8;<7;<10;73;12;11,3;3,3;48
30.05.2023;09:00;65,6;<7;<10;78;13;12,9;2,9;41
30.05.2023;10:00;62,5;<7;<10;78;13;14,0;3,0;13
30.05.2023;11:00;54,9;<7;<10;83;14;15,8;3,2;43
30.05.2023;12:00;49,9;<7;<10;89;14;16,7;3,3;35
30.05.2023;13:00;48,7;<7;<10;94;15;18,0;2,9;43
30.05.2023;14:00;47,6;<7;<10;96;15;19,1;3,4;31
30.05.2023;15:00;46,6;<7;<10;97;15;20,0;4,1;42
30.05.2023;16:00;46,9;<7;<10;97;15;20,7;4,0;40
30.05.2023;17:00;49,1;<7;<10;94;15;20,5;4,4;30
30.05.2023;18:00;58,3;<7;<10;77;15;18,8;5,3;34
30.05.2023;19:00;62,8;<7;<10;68;15;17,3;5,0;33
30.05.2023;20:00;68,0;<7;<10;61;14;15,8;5,1;31
30.05.2023;21:00;72,5;<7;<10;56;14;14,8;3,4;41
30.05.2023;22:00;76,9;<7;11;47;14;13,9;2,2;42
30.05.2023;23:00;80,7;<7;12;43;14;13,2;1,2;50
30.05.2023;24:00;83,8;<7;11;40;14;12,5;1,5;48
31.05.2023;01:00;86,5;<7;<10;43;14;11,8;1,5;33
31.05.2023;02:00;88,9;<7;<10;38;13;11,2;1,5;30
31.05.2023;03:00;92,1;<7;<10;32;13;10,4;0,9;45
31.05.2023;04:00;93,7;<7;<10;31;13;9,9;1,3;30
31.05.2023;05:00;95,5;<7;11;21;12;9,4;0,1;
31.05.2023;06:00;92,0;<7;16;14;12;10,3;0,3;
31.05.2023;07:00;79,1;<7;15;29;12;13,6;1,7;37
31.05.2023;08:00;70,4;;;38;12;15,8;2,2;46
31.05.2023;09:00;63,3;<7;13;47;12;17,8;2,4;53
31.05.2023;10:00;55,1;<7;12;59;11;19,9;2,5;45
31.05.2023;11:00;45,9;<7;<10;78;11;21,9;2,9;48
31.05.2023;12:00;38,9;<7;<10;99;11;23,2;3,2;56
31.05.2023;13:00;37,8;<7;<10;105;11;23,7;3,9;47
31.05.2023;14:00;39,6;<7;<10;106;11;24,2;4,3;37
31.05.2023;15:00;38,7;<7;<10;108;11;24,6;5,0;32
31.05.2023;16:00;39,3;<7;<10;109;11;24,5;5,5;29
31.05.2023;17:00;39,7;<7;<10;106;11;24,7;4,7;33
31.05.2023;18:00;40,6;<7;<10;106;11;23,8;5,1;28
31.05.2023;19:00;41,5;<7;<10;102;11;23,1;4,4;35
31.05.2023;20:00;44,9;<7;<10;100;11;22,1;3,2;34
31.05.2023;21:00;50,2;<7;<10;92;12;20,5;2,2;30
31.05.2023;22:00;57,7;<7;<10;84;12;18,8;2,3;23
31.05.2023;23:00;63,5;<7;<10;;12;17,4;2,3;23
31.05.2023;24:00;70,3;<7;<10;65;12;15,5;1,2;26
01.06.2023;01:00;77,2;<7;<10;59;12;14,1;1,4;21
01.06.2023;02:00;83,2;<7;<10;64;12;13,2;2,5;16
01.06.2023;03:00;87,6;<7;<10;60;12;12,0;2,6;18
01.06.2023;04:00;90,7;<7;<10;56;13;10,7;3,5;21
01.06.2023;05:00;89,2;<7;<10;60;13;10,0;3,4;26
01.06.2023;06:00;87,4;<7;<10;63;13;9,8;2,5;9
01.06.2023;07:00;84,4;<7;<10;62;13;10,4;2,1;359
01.06.2023;08:00;79,9;<7;<10;65;12;11,2;2,4;357
01.06.2023;09:00;76,7;;;65;12;11,9;2,4;23
01.06.2023;10:00;67,9;<7;<10;66;12;14,0;1,8;26
01.06.2023;11:00;61,9;<7;<10;73;12;15,7;2,3;13
01.06.2023;12:00;62,1;<7;<10;69;12;16,5;2,9;12
01.06.2023;13:00;64,2;<7;<10;68;14;16,2;3,2;9
01.06.2023;14:00;66,0;<7;<10;64;14;16,2;3,0;9
01.06.2023;15:00;65,5;<7;<10;63;14;16,6;3,1;13
01.06.2023;16:00;60,7;<7;<10;68;14;17,6;3,1;19
01.06.2023;17:00;57,0;<7;<10;76;14;18,5;3,2;26
01.06.2023;18:00;58,7;<7;<10;79;14;18,2;3,5;8
01.06.2023;19:00;67,5;<7;<10;68;13;16,1;4,0;0
01.06.2023;20:00;67,8;<7;<10;71;13;15,0;3,2;14
01.06.2023;21:00;70,4;<7;<10;73;13;14,0;2,6;5
01.06.2023;22:00;71,7;<7;<10;74;13;13,0;3,7;10
01.06.2023;23:00;71,4;<7;<10;74;13;12,6;3,0;10
01.06.2023;24:00;69,4;<7;<10;;13;12,3;2,7;5
02.06.2023;01:00;69,8;<7;<10;77;13;11,8;3,4;22
02.06.2023;02:00;69,8;<7;<10;78;13;11,2;3,5;19
02.06.2023;03:00;69,4;<7;<10;82;14;10,6;3,0;26
02.06.2023;04:00;70,0;<7;<10;83;14;10,4;2,2;14
02.06.2023;05:00;70,1;<7;<10;82;14;10,4;2,4;354
02.06.2023;06:00;70,1;<7;<10;83;14;10,3;2,7;4
02.06.2023;07:00;69,3;<7;<10;81;14;10,4;2,7;7
02.06.2023;08:00;68,4;<7;<10;82;14;10,7;2,4;29
02.06.2023;09:00;65,5;<7;<10;83;14;11,3;2,3;22
02.06.2023;10:00;61,6;;;82;14;12,7;2,7;37
02.06.2023;11:00;62,1;<7;<10;81;14;13,7;2,9;28
02.06.2023;12:00;60,5;<7;<10;82;14;14,9;3,2;38
02.06.2023;13:00;60,2;<7;<10;81;13;15,8;3,7;33
02.06.2023;14:00;57,5;<7;<10;81;14;17,0;3,4;41
02.06.2023;15:00;55,5;<7;<10;82;14;17,6;3,7;45
02.06.2023;16:00;52,2;<7;<10;84;14;18,3;3,6;43
02.06.2023;17:00;47,2;<7;<10;90;14;19,2;3,5;56
02.06.2023;18:00;47,2;<7;<10;92;14;18,9;2,9;51
02.06.2023;19:00;46,8;<7;<10;94;15;18,7;2,9;67
02.06.2023;20:00;51,3;<7;<10;86;15;18,0;2,7;58
02.06.2023;21:00;59,2;<7;<10;79;15;16,5;2,6;51
02.06.2023;22:00;65,3;<7;16;65;15;15,1;2,2;52
02.06.2023;23:00;70,0;<7;13;60;16;14,1;1,5;54
02.06.2023;24:00;77,6;<7;19;46;16;12,5;1,3;73
03.06.2023;01:00;83,7;<7;14;;16;11,2;0,8;52
03.06.2023;02:00;88,0;<7;15;35;16;10,3;0,8;52
03.06.2023;03:00;85,2;<7;14;38;16;10,3;1,9;61
03.06.2023;04:00;78,7;<7;<10;49;16;10,2;2,2;64
03.06.2023;05:00;73,8;<7;<10;50;16;9,7;1,8;65
03.06.2023;06:00;67,3;<7;<10;49;16;10,4;1,2;60
03.06.2023;07:00;54,4;<7;<10;53;15;13,0;2,2;63
03.06.2023;08:00;46,6;<7;<10;62;15;14,8;3,7;64
03.06.2023;09:00;42,2;<7;<10;67;15;16,4;3,5;62
03.06.2023;10:00;41,0;<7;<10;71;14;17,5;4,1;67
03.06.2023;11:00;37,1;;;78;14;19,0;4,5;65
03.06.2023;12:00;32,1;<7;<10;84;14;19,9;4,5;75
03.06.2023;13:00;29,9;<7;<10;91;13;20,6;4,5;70
03.06.2023;14:00;27,9;<7;<10;93;13;21,5;4,1;68
03.06.2023;15:00;26,6;<7;<10;90;12;21,7;4,4;61
03.06.2023;16:00;26,6;<7;<10;90;12;22,2;3,8;63
03.06.2023;17:00;25,2;<7;<10;93;11;22,2;3,9;54
03.06.2023;18:00;25,7;<7;<10;95;11;21,1;4,5;38
03.06.2023;19:00;28,2;<7;<10;94;10;20,1;4,5;37
03.06.2023;20:00;31,3;<7;<10;92;<10;19,0;4,5;30
03.06.2023;21:00;36,3;<7;<10;85;<10;17,2;2,5;33
03.06.2023;22:00;42,8;<7;<10;78;<10;15,4;2,2;41
03.06.2023;23:00;48,5;<7;14;64;<10;14,0;1,6;43
03.06.2023;24:00;60,7;<7;59;13;<10;11,6;0,2;
04.06.2023;01:00;70,3;<7;52;9;<10;10,1;0,9;14
04.06.2023;02:00;73,9;<7;38;;<10;9,4;1,3;24
04.06.2023;03:00;76,7;<7;33;15;<10;8,7;0,6;
04.06.2023;04:00;81,4;<7;40;6;<10;7,7;0,3;
04.06.2023;05:00;86,5;<7;32;5;<10;7,0;0,3;
04.06.2023;06:00;83,6;15;32;6;<10;8,1;0,0;
04.06.2023;07:00;68,1;<7;13;34;<10;12,4;0,8;
04.06.2023;08:00;54,8;<7;<10;50;<10;15,2;1,3;62
04.06.2023;09:00;45,3;<7;<10;62;<10;17,2;1,8;69
04.06.2023;10:00;41,3;<7;<10;69;<10;19,3;1,9;51
04.06.2023;11:00;36,1;<7;<10;83;<10;20,9;3,3;41
04.06.2023;12:00;30,3;;;99;<10;21,9;3,6;66
04.06.2023;13:00;28,6;<7;<10;102;<10;22,7;3,0;68
04.06.2023;14:00;24,5;<7;<10;104;<10;23,4;2,9;76
04.06.2023;15:00;26,6;<7;<10;110;<10;24,2;2,7;53
04.06.2023;16:00;27,2;<7;<10;114;<10;24,4;2,9;48
04.06.2023;17:00;26,8;<7;<10;113;<10;24,5;3,6;47
04.06.2023;18:00;30,7;<7;<10;113;<10;23,1;4,5;31
04.06.2023;19:00;32,4;<7;<10;109;10;22,2;4,6;26
04.06.2023;20:00;33,9;<7;<10;103;10;21,1;3,9;26
04.06.2023;21:00;39,1;<7;<10;94;10;19,4;2,6;32
04.06.2023;22:00;46,1;<7;<10;84;11;17,4;1,9;40
04.06.2023;23:00;55,6;<7;<10;80;10;16,3;2,9;34
04.06.2023;24:00;66,8;<7;<10;74;10;15,2;2,8;38
05.06.2023;01:00;72,4;<7;<10;66;10;14,1;2,6;28
05.06.2023;02:00;75,2;<7;<10;61;10;13,2;2,7;29
05.06.2023;03:00;83,2;;;;<10;11,8;2,1;7
05.06.2023;04:00;85,6;;;;<10;10,9;2,2;11
05.06.2023;05:00;86,8;;;;<10;10,3;2,0;15
05.06.2023;06:00;85,3;<7;11;45;<10;10,6;1,3;22
05.06.2023;07:00;76,1;<7;13;44;10;12,8;1,4;33
05.06.2023;08:00;69,2;<7;17;42;10;14,7;1,6;46
05.06.2023;09:00;63,3;<7;15;46;10;16,8;1,8;38
05.06.2023;10:00;58,2;<7;13;54;11;18,8;2,5;20
05.06.2023;11:00;51,6;<7;<10;68;11;20,7;2,9;31
05.06.2023;12:00;45,8;<7;<10;82;11;22,4;3,2;19
05.06.2023;13:00;38,3;<7;<10;97;12;23,7;3,3;37
05.06.2023;14:00;33,5;<7;<10;107;12;24,8;3,6;44
05.06.2023;15:00;28,7;<7;<10;115;13;25,5;2,9;73
05.06.2023;16:00;30,3;<7;<10;120;13;25,8;3,7;27
05.06.2023;17:00;30,6;<7;<10;122;13;25,4;4,0;27
05.06.2023;18:00;32,7;<7;<10;121;13;24,6;3,8;27
05.06.2023;19:00;35,4;<7;<10;119;13;23,6;3,9;26
05.06.2023;20:00;37,7;<7;<10;115;13;22,6;3,4;23
05.06.2023;21:00;44,5;<7;<10;102;13;20,9;2,2;16
05.06.2023;22:00;53,6;<7;12;86;14;18,5;1,7;16
05.06.2023;23:00;59,0;<7;<10;89;14;18,0;2,9;23
05.06.2023;24:00;70,4;<7;<10;80;14;16,7;1,8;41
06.06.2023;01:00;77,3;<7;<10;69;14;15,5;2,1;41
06.06.2023;02:00;83,3;<7;<10;60;14;14,1;1,7;3
06.06.2023;03:00;85,5;<7;<10;58;14;13,3;2,6;2
06.06.2023;04:00;87,1;<7;10;54;14;12,4;1,8;10
06.06.2023;05:00;89,3;<7;<10;51;14;11,7;1,2;23
06.06.2023;06:00;87,0;<7;11;49;14;12,0;1,8;20
06.06.2023;07:00;79,0;<7;12;49;14;13,8;1,4;12
06.06.2023;08:00;72,8;<7;12;50;14;15,6;1,8;34
06.06.2023;09:00;67,8;<7;<10;54;15;17,4;1,8;37
06.06.2023;10:00;62,5;<7;<10;61;15;19,7;2,1;7
06.06.2023;11:00;56,7;<7;<10;75;14;21,2;2,4;29
06.06.2023;12:00;52,7;<7;<10;86;14;22,5;2,6;26
06.06.2023;13:00;46,5;<7;<10;100;14;24,1;3,3;27
06.06.2023;14:00;41,6;<7;<10;111;14;24,6;3,3;38
06.06.2023;15:00;42,1;<7;<10;113;14;24,4;3,6;36
06.06.2023;16:00;37,8;<7;<10;113;14;25,2;3,7;29
06.06.2023;17:00;34,1;<7;<10;113;14;25,3;4,0;41
06.06.2023;18:00;35,5;<7;<10;114;14;24,9;3,2;42
06.06.2023;19:00;40,6;<7;<10;112;15;23,5;2,7;48
06.06.2023;20:00;46,3;<7;12;106;15;22,3;1,8;44
06.06.2023;21:00;53,2;<7;12;96;15;21,1;1,0;29
06.06.2023;22:00;60,5;<7;16;82;15;19,2;1,5;21
06.06.2023;23:00;62,9;<7;13;81;16;18,4;1,7;26
06.06.2023;24:00;68,5;<7;11;76;16;18,1;1,5;17
07.06.2023;01:00;72,6;<7;<10;74;16;17,9;1,4;28
07.06.2023;02:00;72,1;<7;12;70;16;17,6;2,2;15
07.06.2023;03:00;71,7;<7;14;67;17;16,8;2,3;10
07.06.2023;04:00;73,5;<7;13;69;17;16,1;2,2;14
07.06.2023;05:00;89,9;<7;14;59;17;14,3;1,7;12
07.06.2023;06:00;92,6;<7;15;45;17;13,9;1,3;19
07.06.2023;07:00;89,9;<7;15;47;17;13,9;1,9;27
07.06.2023;08:00;90,0;<7;14;46;17;13,9;1,8;28
07.06.2023;09:00;93,2;<7;13;38;17;13,8;1,7;353
07.06.2023;10:00;87,7;<7;11;41;17;14,9;2,7;21
07.06.2023;11:00;84,8;<7;12;42;17;15,9;2,0;17
07.06.2023;12:00;83,5;<7;11;46;17;16,8;2,2;1
07.06.2023;13:00;79,0;<7;<10;52;17;18,4;2,6;12
07.06.2023;14:00;70,4;<7;<10;72;17;20,7;2,5;10
07.06.2023;15:00;68,5;<7;<10;86;17;21,4;2,9;31
07.06.2023;16:00;66,9;<7;<10;97;17;21,8;3,3;27
07.06.2023;17:00;66,1;<7;<10;100;17;21,9;3,7;39
07.06.2023;18:00;63,5;<7;<10;100;17;21,9;3,7;37
07.06.2023;19:00;57,8;<7;<10;105;17;21,9;3,5;30
07.06.2023;20:00;63,6;<7;<10;94;17;20,9;1,9;24
07.06.2023;21:00;67,3;<7;<10;90;17;19,7;2,0;23
07.06.2023;22:00;71,6;<7;<10;82;17;18,8;1,4;22
07.06.2023;23:00;75,4;<7;12;73;17;18,1;1,2;22
07.06.2023;24:00;74,8;<7;10;74;17;18,2;2,4;25
08.06.2023;01:00;76,0;<7;<10;75;17;17,5;2,7;38
08.06.2023;02:00;76,8;<7;<10;74;17;16,3;2,9;33
08.06.2023;03:00;80,3;<7;<10;64;17;15,2;2,1;31
08.06.2023;04:00;82,6;<7;10;58;17;14,3;1,8;18
08.06.2023;05:00;84,5;<7;13;49;17;13,6;1,9;21
08.06.2023;06:00;84,2;<7;<10;48;17;14,0;2,0;35
08.06.2023;07:00;79,9;<7;<10;48;17;15,2;1,9;32
08.06.2023;08:00;74,6;<7;12;47;18;16,5;2,4;41
08.06.2023;09:00;74,1;<7;13;45;17;17,3;2,4;45
08.06.2023;10:00;63,9;<7;10;59;17;20,7;2,9;42
08.06.2023;11:00;58,9;<7;<10;76;17;22,6;3,0;32
08.06.2023;12:00;56,1;<7;<10;91;18;24,0;3,9;32
08.06.2023;13:00;52,6;<7;<10;104;18;25,1;4,9;34
08.06.2023;14:00;48,5;<7;<10;113;18;26,2;4,8;50
08.06.2023;15:00;45,5;<7;<10;119;17;27,0;5,0;58
08.06.2023;16:00;41,8;;;;17;27,1;4,7;66
08.06.2023;17:00;39,5;;;;16;27,2;4,6;68
08.06.2023;18:00;43,2;;;;16;26,2;4,6;60
08.06.2023;19:00;44,3;;;;16;25,6;3,9;63
08.06.2023;20:00;49,4;;;;16;24,4;3,1;43
08.06.2023;21:00;50,7;;;;16;23,0;2,7;50
08.06.2023;22:00;55,3;;;;16;21,7;2,0;50
08.06.2023;23:00;58,6;;;;16;21,3;2,1;72
08.06.2023;24:00;65,7;;;;16;19,8;1,1;60
09.06.2023;01:00;73,3;;;;16;18,3;1,3;58
09.06.2023;02:00;77,8;;;;16;17,3;1,5;27
09.06.2023;03:00;82,2;;;;16;16,2;1,4;21
09.06.2023;04:00;84,9;;;;16;15,4;0,9;28
09.06.2023;05:00;87,1;;;;16;15,0;1,2;79
09.06.2023;06:00;83,9;;;;16;15,8;1,4;50
09.06.2023;07:00;73,7;;;;16;18,4;1,7;53
09.06.2023;08:00;64,8;;;;16;20,7;2,5;62
09.06.2023;09:00;56,5;;;;16;23,0;2,9;66
09.06.2023;10:00;51,9;;;;17;24,6;2,8;64